Weather History for KSDF - October, 2014

Change the Weather History Date:

Thursday, October 30, 2014

  Actual Average Record
Temperature  
Mean Temperature 49 °F 55 °F  
Max Temperature 59 °F 65 °F 84 °F (1950)
Min Temperature 38 °F 45 °F 26 °F (1895)
Degree Days  
Heating Degree Days 16 10  
Month to date heating degree days 167 201  
Since 1 July heating degree days 180 231  
Cooling Degree Days 0 0  
Month to date cooling degree days 30 44  
Year to date cooling degree days 1625 1611  
Moisture  
Dew Point 36 °F    
Average Humidity 64    
Maximum Humidity 85    
Minimum Humidity 43    
Precipitation  
Precipitation 0.00 in 0.11 in 1.49 in (2013)
Month to date precipitation 3.38 3.12  
Year to date precipitation 37.86 37.39  
Snow  
Snow 0.00 in 0.00 in 2.50 in (1925)
Month to date snowfall 0.0 0.1  
Since 1 July snowfall 0.0 0.1  
Since 1 September snowfall 0.0 0.1  
Snow Depth 0.00 in    
Sea Level Pressure  
Sea Level Pressure 30.12 in    
Wind  
Wind Speed 5 mph (SE)    
Max Wind Speed 12 mph    
Max Gust Speed 13 mph    
Visibility 10 miles    
Events      
T = Trace of Precipitation, MM = Missing Value Source: NWS Daily Summary

Daily Weather History Graph

Daily Weather History Graph

Search for Another Location

Airport or City:

Trip Planner

Search our weather history database for the weather conditions in past years. The results will help you decide how hot, cold, wet, or windy it might be!

Date:

Astronomy

Oct. 30, 2014 Rise Set
Actual Time 8:06 AM EDT 6:45 PM EDT
Civil Twilight 7:39 AM EDT 7:13 PM EDT
Nautical Twilight 7:08 AM EDT 7:44 PM EDT
Astronomical Twilight 6:37 AM EDT 8:14 PM EDT
Moon 2:09 PM EDT (10/30) No Moon Set
Length of Visible Light 11h 33m
Length of Day
10h 39m
Waxing Crescent, 45% of the Moon is Illuminated
Oct 30
Waxing Crescent
Oct 30
First Quarter
Nov 6
Full
Nov 14
Last Quarter
Nov 22
New

Hourly Weather History & Observations

Time (EDT) Temp. Windchill Dew Point Humidity Pressure Visibility Wind Dir Wind Speed Gust Speed Precip Events Conditions
12:56 AM 46.9 °F - 36.0 °F 66% 30.15 in 10.0 mi ESE 6.9 mph - N/A   Scattered Clouds
1:56 AM 45.0 °F 42.6 °F 35.1 °F 68% 30.15 in 10.0 mi Variable 4.6 mph - N/A   Scattered Clouds
2:56 AM 45.0 °F 43.5 °F 35.1 °F 68% 30.16 in 10.0 mi Variable 3.5 mph - N/A   Partly Cloudy
3:56 AM 44.1 °F 41.5 °F 36.0 °F 73% 30.15 in 10.0 mi Variable 4.6 mph - N/A   Clear
4:56 AM 41.0 °F 38.0 °F 36.0 °F 82% 30.16 in 10.0 mi Variable 4.6 mph - N/A   Partly Cloudy
5:56 AM 41.0 °F - 36.0 °F 82% 30.16 in 10.0 mi Calm Calm - N/A   Clear
6:56 AM 39.0 °F 35.7 °F 36.0 °F 89% 30.17 in 10.0 mi Variable 4.6 mph - N/A   Clear
7:56 AM 41.0 °F - 36.0 °F 82% 30.18 in 10.0 mi Calm Calm - N/A   Partly Cloudy
8:56 AM 42.1 °F 37.7 °F 36.0 °F 79% 30.19 in 10.0 mi SW 6.9 mph - N/A   Partly Cloudy
9:56 AM 46.9 °F - 35.1 °F 63% 30.19 in 10.0 mi Variable 3.5 mph - N/A   Clear
10:56 AM 50.0 °F - 36.0 °F 59% 30.19 in 10.0 mi Variable 6.9 mph - N/A   Partly Cloudy
11:56 AM 50.0 °F - 35.1 °F 57% 30.17 in 10.0 mi South 3.5 mph - N/A   Partly Cloudy
12:56 PM 54.0 °F - 35.1 °F 49% 30.15 in 10.0 mi Variable 5.8 mph - N/A   Partly Cloudy
1:56 PM 54.0 °F - 35.1 °F 49% 30.12 in 10.0 mi Variable 4.6 mph - N/A   Scattered Clouds
2:56 PM 57.0 °F - 35.1 °F 44% 30.10 in 10.0 mi Variable 5.8 mph - N/A   Scattered Clouds
3:56 PM 57.9 °F - 35.1 °F 42% 30.08 in 10.0 mi Variable 5.8 mph - N/A   Scattered Clouds
4:56 PM 57.0 °F - 35.1 °F 44% 30.06 in 10.0 mi Calm Calm - N/A   Scattered Clouds
5:56 PM 57.0 °F - 36.0 °F 45% 30.06 in 10.0 mi Variable 5.8 mph - N/A   Scattered Clouds
6:56 PM 53.1 °F - 36.0 °F 52% 30.06 in 10.0 mi ENE 5.8 mph - N/A   Partly Cloudy
7:56 PM 52.0 °F - 36.0 °F 54% 30.06 in 10.0 mi SE 8.1 mph - N/A   Partly Cloudy
8:56 PM 52.0 °F - 36.0 °F 54% 30.06 in 10.0 mi SSE 8.1 mph - N/A   Partly Cloudy
9:56 PM 51.1 °F - 37.0 °F 59% 30.06 in 10.0 mi SSE 9.2 mph - N/A   Mostly Cloudy
10:56 PM 50.0 °F - 37.9 °F 63% 30.05 in 10.0 mi SE 10.4 mph - N/A   Overcast
11:56 PM 50.0 °F - 37.9 °F 63% 30.05 in 10.0 mi SE 8.1 mph - N/A   Overcast